| time (UTC) | temp F | wind direction | speed MPH | gust MPH | rain 1hr in | rain 24hr in | rain mn in | humidity % | barometer mb |
| 20260504224013 | 47 | 68 | 0.0 | 0.0 | 0.00 | 0.07 | 0.00 | 89 | |
| 20260504223513 | 47 | 68 | 0.0 | 0.0 | 0.00 | 0.07 | 0.00 | 90 | |
| 20260504223013 | 47 | 68 | 0.0 | 0.0 | 0.00 | 0.07 | 0.00 | 90 | |
| 20260504222513 | 47 | 68 | 0.0 | 0.0 | 0.00 | 0.07 | 0.00 | 90 | |
| 20260504222013 | 47 | 68 | 0.0 | 0.0 | 0.00 | 0.07 | 0.00 | 90 | |
| 20260504221513 | 47 | 68 | 0.0 | 0.0 | 0.00 | 0.07 | 0.00 | 90 | |
| 20260504221013 | 47 | 68 | 0.0 | 0.0 | 0.00 | 0.07 | 0.00 | 90 | |
| 20260504220513 | 48 | 68 | 0.0 | 0.0 | 0.00 | 0.07 | 0.00 | 90 | |
| 20260504220013 | 48 | 68 | 0.0 | 0.0 | 0.00 | 0.07 | 0.00 | 90 | |
| 20260504215513 | 48 | 68 | 0.0 | 0.0 | 0.00 | 0.07 | 0.00 | 89 | |
| 20260504215013 | 48 | 68 | 0.0 | 0.0 | 0.00 | 0.07 | 0.00 | 89 | |
| 20260504214513 | 48 | 68 | 0.0 | 0.0 | 0.00 | 0.07 | 0.00 | 88 | |
| 20260504214013 | 48 | 68 | 0.0 | 0.0 | 0.00 | 0.07 | 0.00 | 89 | |
| 20260504213513 | 49 | 68 | 0.0 | 0.0 | 0.00 | 0.07 | 0.00 | 86 | |
| 20260504213015 | 49 | 68 | 0.0 | 0.0 | 0.00 | 0.07 | 0.00 | 84 | |
| 20260504212513 | 49 | 68 | 0.0 | 0.0 | 0.00 | 0.07 | 0.00 | 85 | |
| 20260504212013 | 49 | 68 | 0.0 | 0.0 | 0.00 | 0.07 | 0.00 | 84 | |
| 20260504211513 | 49 | 68 | 0.0 | 0.0 | 0.00 | 0.07 | 0.00 | 86 | |
| 20260504211013 | 49 | 68 | 0.0 | 0.0 | 0.00 | 0.07 | 0.00 | 86 | |
| 20260504210513 | 49 | 68 | 0.0 | 0.0 | 0.00 | 0.07 | 0.00 | 86 | |
| 20260504210013 | 49 | 68 | 0.0 | 0.0 | 0.00 | 0.07 | 0.00 | 86 | |
| 20260504205513 | 49 | 68 | 0.0 | 0.0 | 0.00 | 0.07 | 0.00 | 85 | |
| 20260504205013 | 49 | 68 | 0.0 | 0.0 | 0.00 | 0.07 | 0.00 | 86 | |
| 20260504204513 | 50 | 68 | 0.0 | 0.0 | 0.00 | 0.07 | 0.00 | 83 | |
| 20260504204013 | 50 | 68 | 0.0 | 0.0 | 0.00 | 0.07 | 0.00 | 85 | |
| 20260504203513 | 50 | 68 | 0.0 | 0.0 | 0.00 | 0.07 | 0.00 | 80 | |
| 20260504203013 | 50 | 68 | 0.0 | 0.0 | 0.00 | 0.07 | 0.00 | 83 | |
| 20260504202513 | 50 | 68 | 0.0 | 0.0 | 0.00 | 0.07 | 0.00 | 81 | |
| 20260504202013 | 50 | 68 | 0.0 | 0.0 | 0.00 | 0.07 | 0.00 | 79 | |
| 20260504201513 | 50 | 68 | 0.0 | 0.0 | 0.00 | 0.07 | 0.00 | 78 | |
| 20260504201013 | 50 | 68 | 0.0 | 0.0 | 0.00 | 0.07 | 0.00 | 77 | |
| 20260504200513 | 50 | 68 | 0.0 | 0.0 | 0.00 | 0.07 | 0.00 | 78 | |
| 20260504200013 | 51 | 68 | 0.0 | 0.0 | 0.00 | 0.07 | 0.00 | 77 | |
| 20260504195513 | 51 | 68 | 0.0 | 0.0 | 0.00 | 0.07 | 0.00 | 77 | |
| 20260504195013 | 51 | 68 | 0.0 | 0.0 | 0.00 | 0.07 | 0.00 | 77 | |
| 20260504194513 | 51 | 68 | 0.0 | 0.0 | 0.00 | 0.07 | 0.00 | 74 | |
| 20260504194013 | 51 | 68 | 0.0 | 0.0 | 0.00 | 0.07 | 0.00 | 74 | |
| 20260504193513 | 51 | 68 | 0.0 | 0.0 | 0.00 | 0.07 | 0.00 | 73 | |
| 20260504193013 | 52 | 68 | 0.0 | 0.0 | 0.00 | 0.07 | 0.00 | 72 | |
| 20260504192513 | 52 | 68 | 0.0 | 0.0 | 0.00 | 0.07 | 0.00 | 72 | |
| 20260504192013 | 52 | 68 | 0.0 | 0.0 | 0.00 | 0.07 | 0.00 | 70 | |
| 20260504191513 | 52 | 68 | 0.0 | 0.0 | 0.00 | 0.07 | 0.00 | 69 | |
| 20260504191013 | 53 | 68 | 0.0 | 0.0 | 0.00 | 0.07 | 0.00 | 68 | |
| 20260504190513 | 53 | 68 | 0.0 | 0.0 | 0.00 | 0.07 | 0.07 | 66 | |
| 20260504190040 | 53 | 68 | 0.0 | 0.0 | 0.00 | 0.07 | 0.07 | 68 | |
| 20260504185513 | 54 | 68 | 0.0 | 0.0 | 0.00 | 0.07 | 0.07 | 65 | |
| 20260504185013 | 54 | 68 | 0.0 | 0.0 | 0.00 | 0.07 | 0.07 | 64 | |
| 20260504184513 | 55 | 68 | 0.0 | 0.0 | 0.00 | 0.07 | 0.07 | 63 | |
| 20260504184013 | 55 | 68 | 0.0 | 0.0 | 0.00 | 0.07 | 0.07 | 60 | |
| 20260504183515 | 56 | 68 | 0.0 | 0.0 | 0.01 | 0.07 | 0.07 | 58 | |
| 20260504183013 | 56 | 68 | 0.0 | 0.0 | 0.01 | 0.07 | 0.07 | 57 | |
| 20260504182513 | 57 | 68 | 0.0 | 0.0 | 0.01 | 0.07 | 0.07 | 56 | |
| 20260504182013 | 57 | 68 | 0.0 | 0.0 | 0.01 | 0.07 | 0.07 | 54 | |
| 20260504181513 | 57 | 68 | 0.0 | 0.0 | 0.01 | 0.07 | 0.07 | 54 | |
| 20260504181014 | 58 | 68 | 0.0 | 0.0 | 0.01 | 0.07 | 0.07 | 52 | |
| 20260504151036 | 78 | 68 | 0.0 | 0.0 | 0.03 | 0.03 | 0.03 | 24 | |
| 20260504130514 | 78 | 68 | 0.0 | 0.0 | 0.00 | 0.00 | 0.00 | 18 | |
| 20260504110514 | 76 | 68 | 0.0 | 0.0 | 0.00 | 0.01 | 0.00 | 20 | |
| 20260504100515 | 74 | 68 | 0.0 | 0.0 | 0.00 | 0.01 | 0.00 | 22 | |
| 20260504081515 | 70 | 68 | 0.0 | 0.0 | 0.00 | 0.01 | 0.00 | 27 | |
| 20260504081029 | 70 | 68 | 0.0 | 0.0 | 0.00 | 0.01 | 0.00 | 30 | |
| 20260504080515 | 70 | 68 | 0.0 | 0.0 | 0.00 | 0.01 | 0.00 | 30 | |
| 20260504050515 | 43 | 68 | 0.0 | 0.0 | 0.00 | 0.01 | 0.00 | 100 | |
| 20260504050015 | 42 | 68 | 0.0 | 0.0 | 0.00 | 0.01 | 0.00 | 100 | |
| 20260504045516 | 42 | 68 | 0.0 | 0.0 | 0.00 | 0.01 | 0.00 | 100 | |
| 20260504045015 | 40 | 68 | 0.0 | 0.0 | 0.00 | 0.01 | 0.00 | 100 | |
| 20260504044516 | 39 | 68 | 0.0 | 0.0 | 0.00 | 0.01 | 0.00 | 100 | |
| 20260504044016 | 39 | 68 | 0.0 | 0.0 | 0.00 | 0.01 | 0.00 | 100 | |
| 20260504043516 | 38 | 68 | 0.0 | 0.0 | 0.00 | 0.01 | 0.00 | 100 | |
| 20260504043016 | 37 | 68 | 0.0 | 0.0 | 0.00 | 0.01 | 0.00 | 100 | |
| 20260504042516 | 37 | 68 | 0.0 | 0.0 | 0.00 | 0.01 | 0.00 | 100 | |
| 20260504042016 | 36 | 68 | 0.0 | 0.0 | 0.00 | 0.01 | 0.00 | 100 | |
| 20260504041516 | 36 | 68 | 0.0 | 0.0 | 0.00 | 0.01 | 0.00 | 100 | |
| 20260504041016 | 36 | 68 | 0.0 | 0.0 | 0.00 | 0.01 | 0.00 | 100 | |
| 20260504040516 | 36 | 68 | 0.0 | 0.0 | 0.00 | 0.01 | 0.00 | 100 | |
| 20260504040016 | 36 | 68 | 0.0 | 0.0 | 0.00 | 0.01 | 0.00 | 100 | |
| 20260504035516 | 35 | 68 | 0.0 | 0.0 | 0.00 | 0.01 | 0.00 | 100 | |
| 20260504035016 | 35 | 68 | 0.0 | 0.0 | 0.00 | 0.01 | 0.00 | 100 | |
| 20260504034516 | 35 | 68 | 0.0 | 0.0 | 0.00 | 0.01 | 0.00 | 100 | |
| 20260504034016 | 35 | 68 | 0.0 | 0.0 | 0.00 | 0.01 | 0.00 | 100 | |
| 20260504033516 | 35 | 68 | 0.0 | 0.0 | 0.00 | 0.01 | 0.00 | 100 | |
| 20260504033016 | 35 | 68 | 0.0 | 0.0 | 0.00 | 0.01 | 0.00 | 100 | |
| 20260504032516 | 35 | 68 | 0.0 | 0.0 | 0.00 | 0.01 | 0.00 | 100 | |
| 20260504032016 | 35 | 68 | 0.0 | 0.0 | 0.00 | 0.01 | 0.00 | 100 | |
| 20260504031516 | 35 | 68 | 0.0 | 0.0 | 0.00 | 0.01 | 0.00 | 100 | |
| 20260504031016 | 35 | 68 | 0.0 | 0.0 | 0.00 | 0.01 | 0.00 | 100 | |
| 20260504030516 | 35 | 68 | 0.0 | 0.0 | 0.00 | 0.01 | 0.00 | 100 | |
| 20260504030016 | 35 | 68 | 0.0 | 0.0 | 0.00 | 0.01 | 0.00 | 100 | |
| 20260504025516 | 35 | 68 | 0.0 | 0.0 | 0.00 | 0.01 | 0.00 | 100 | |
| 20260504025016 | 35 | 68 | 0.0 | 0.0 | 0.00 | 0.01 | 0.00 | 100 | |
| 20260504024516 | 35 | 68 | 0.0 | 0.0 | 0.00 | 0.01 | 0.00 | 100 | |
| 20260504024016 | 35 | 68 | 0.0 | 0.0 | 0.00 | 0.01 | 0.00 | 100 | |
| 20260504023516 | 35 | 68 | 0.0 | 0.0 | 0.00 | 0.01 | 0.00 | 100 | |
| 20260504023016 | 35 | 68 | 0.0 | 0.0 | 0.00 | 0.01 | 0.00 | 100 | |
| 20260504022516 | 35 | 68 | 0.0 | 0.0 | 0.00 | 0.01 | 0.00 | 100 | |
| 20260504022016 | 35 | 68 | 0.0 | 0.0 | 0.00 | 0.01 | 0.00 | 100 | |
| 20260504021516 | 35 | 68 | 0.0 | 0.0 | 0.00 | 0.01 | 0.00 | 100 | |
| 20260504021016 | 36 | 68 | 0.0 | 0.0 | 0.00 | 0.01 | 0.00 | 100 | |
| 20260504020516 | 36 | 68 | 0.0 | 0.0 | 0.00 | 0.01 | 0.00 | 100 | |
| 20260504020016 | 36 | 68 | 0.0 | 0.0 | 0.00 | 0.01 | 0.00 | 100 | |
| 20260504015516 | 36 | 68 | 0.0 | 0.0 | 0.00 | 0.01 | 0.00 | 100 | |
| 20260504015016 | 36 | 68 | 0.0 | 0.0 | 0.00 | 0.01 | 0.00 | 100 | |
| 20260504014516 | 36 | 68 | 0.0 | 0.0 | 0.00 | 0.01 | 0.00 | 100 | |
| 20260504014016 | 36 | 68 | 0.0 | 0.0 | 0.00 | 0.01 | 0.00 | 100 | |
| 20260504013516 | 36 | 68 | 0.0 | 0.0 | 0.00 | 0.01 | 0.00 | 100 | |
| 20260504013016 | 36 | 68 | 0.0 | 0.0 | 0.00 | 0.01 | 0.00 | 100 | |
| 20260504012516 | 36 | 68 | 0.0 | 0.0 | 0.00 | 0.01 | 0.00 | 100 | |
| 20260504012016 | 37 | 68 | 0.0 | 0.0 | 0.00 | 0.01 | 0.00 | 100 | |
| 20260504011516 | 37 | 68 | 0.0 | 0.0 | 0.00 | 0.01 | 0.00 | 100 | |
| 20260504011016 | 37 | 68 | 0.0 | 0.0 | 0.00 | 0.01 | 0.00 | 100 | |
| 20260504010516 | 37 | 68 | 0.0 | 0.0 | 0.00 | 0.01 | 0.00 | 100 | |
| 20260504010016 | 36 | 68 | 0.0 | 0.0 | 0.00 | 0.01 | 0.00 | 100 | |
| 20260504005516 | 37 | 68 | 0.0 | 0.0 | 0.00 | 0.01 | 0.00 | 100 | |
| 20260504005016 | 37 | 68 | 0.0 | 0.0 | 0.00 | 0.01 | 0.00 | 100 | |
| 20260504004516 | 37 | 68 | 0.0 | 0.0 | 0.00 | 0.01 | 0.00 | 100 | |
| 20260504004016 | 37 | 68 | 0.0 | 0.0 | 0.00 | 0.01 | 0.00 | 100 | |
| 20260504003516 | 37 | 68 | 0.0 | 0.0 | 0.00 | 0.01 | 0.00 | 100 | |
| 20260504003016 | 37 | 68 | 0.0 | 0.0 | 0.00 | 0.01 | 0.00 | 100 | |
| 20260504002516 | 37 | 68 | 0.0 | 0.0 | 0.00 | 0.01 | 0.00 | 100 | |
| 20260504002016 | 37 | 68 | 0.0 | 0.0 | 0.00 | 0.01 | 0.00 | 100 | |
| 20260504001516 | 37 | 68 | 0.0 | 0.0 | 0.00 | 0.01 | 0.00 | 100 | |
| 20260504001016 | 37 | 68 | 0.0 | 0.0 | 0.00 | 0.01 | 0.00 | 100 | |
| 20260504000516 | 38 | 68 | 0.0 | 0.0 | 0.00 | 0.01 | 0.00 | 100 | |
| 20260504000016 | 37 | 68 | 0.0 | 0.0 | 0.00 | 0.01 | 0.00 | 100 | |
| 20260503235516 | 38 | 68 | 0.0 | 0.0 | 0.00 | 0.01 | 0.00 | 100 | |
| 20260503235016 | 38 | 68 | 0.0 | 0.0 | 0.00 | 0.01 | 0.00 | 100 | |
| 20260503234516 | 38 | 68 | 0.0 | 0.0 | 0.00 | 0.01 | 0.00 | 100 | |
| 20260503234016 | 38 | 68 | 0.0 | 0.0 | 0.00 | 0.01 | 0.00 | 100 | |
| 20260503233516 | 38 | 68 | 0.0 | 0.0 | 0.00 | 0.01 | 0.00 | 100 | |
| 20260503233016 | 39 | 68 | 0.0 | 0.0 | 0.00 | 0.01 | 0.00 | 100 | |
| 20260503232516 | 39 | 68 | 0.0 | 0.0 | 0.00 | 0.01 | 0.00 | 100 | |
| 20260503232016 | 39 | 68 | 0.0 | 0.0 | 0.00 | 0.01 | 0.00 | 100 | |
| 20260503231516 | 39 | 68 | 0.0 | 0.0 | 0.00 | 0.01 | 0.00 | 100 | |
| 20260503231016 | 39 | 68 | 0.0 | 0.0 | 0.00 | 0.01 | 0.00 | 100 | |
| 20260503230516 | 39 | 68 | 0.0 | 0.0 | 0.00 | 0.01 | 0.00 | 100 | |
| 20260503230016 | 40 | 68 | 0.0 | 0.0 | 0.00 | 0.01 | 0.00 | 100 | |
| 20260503225517 | 40 | 68 | 0.0 | 0.0 | 0.00 | 0.01 | 0.00 | 100 | |
| 20260503225016 | 40 | 68 | 0.0 | 0.0 | 0.00 | 0.01 | 0.00 | 100 | |
| 20260503224517 | 40 | 68 | 0.0 | 0.0 | 0.00 | 0.01 | 0.00 | 100 |